This is the latest recevied weather packets stored in our database for station/object KA4YMY. If no packets are shown the sender has not sent any weather packets the latest 10 day(s).
| Time | Temp. | Humidity | Pressure | Rain* | Wind** | Luminosity | Snow |
|---|---|---|---|---|---|---|---|
| 1777407316 | 17.22° C | 82% | 1018 hPa | 0 mm | - | - | - |
| 1777406716 | 17.22° C | 82% | 1018.2 hPa | 0 mm | - | - | - |
| 1777406116 | 17.22° C | 82% | 1018.4 hPa | 0 mm | - | - | - |
| 1777405516 | 17.78° C | 83% | 1018.6 hPa | 0 mm | - | - | - |
| 1777404916 | 17.22° C | 84% | 1018.7 hPa | 0 mm | - | - | - |
| 1777404316 | 17.22° C | 85% | 1019 hPa | 0 mm | - | - | - |
| 1777403716 | 16.67° C | 86% | 1019.2 hPa | 0 mm | - | - | - |
| 1777403116 | 16.11° C | 87% | 1019.4 hPa | 0 mm | - | - | - |
| 1777402516 | 16.11° C | 86% | 1019.5 hPa | 0 mm | - | - | - |
| 1777401916 | 16.11° C | 88% | 1019.6 hPa | 0 mm | - | - | - |
| 1777401316 | 16.11° C | 88% | 1019.7 hPa | 0 mm | - | - | - |
| 1777400716 | 15.56° C | 89% | 1019.9 hPa | 0 mm | - | - | - |
| 1777400116 | 15.56° C | 89% | 1019.9 hPa | 0 mm | - | - | - |
| 1777399516 | 15° C | 91% | 1020.1 hPa | 0 mm | - | - | - |
| 1777398916 | 15° C | 92% | 1020.2 hPa | 0 mm | - | - | - |
| 1777398316 | 14.44° C | 91% | 1020 hPa | 0 mm | - | - | - |
| 1777397716 | 14.44° C | 91% | 1020.1 hPa | 0 mm | - | - | - |
| 1777397116 | 14.44° C | 91% | 1020.2 hPa | 0 mm | - | - | - |
| 1777396516 | 14.44° C | 92% | 1020.3 hPa | 0 mm | - | - | - |
| 1777395916 | 14.44° C | 92% | 1020.5 hPa | 0 mm | - | - | - |
| 1777395316 | 14.44° C | 92% | 1020.1 hPa | 0 mm | - | - | - |
| 1777394716 | 14.44° C | 93% | 1021 hPa | 0 mm | - | - | - |
| 1777394116 | 13.89° C | 94% | 1021.1 hPa | 0 mm | - | - | - |
| 1777393517 | 13.89° C | 95% | 1021.1 hPa | 0 mm | - | - | - |
| 1777392917 | 13.89° C | 95% | 1021.1 hPa | 0 mm | - | - | - |
* Rain latest hour (hover to see other rain measurements)
** Current wind speed in m/s (hover to see current wind gust speed)